Tracking 20942 objects as of 13-Jul-2020
HD Live streaming from Space Station
objects crossing your sky now

THOR ABLESTAR DEB

Track THOR ABLESTAR DEB now!
10-day predictions


NORAD ID: 406
Int'l Code: 1961-015EF
Perigee: 932.4 km
Apogee: 1,103.3 km
Inclination: 66.8 °
Period: 105.3 minutes
Semi major axis: 7388 km
RCS: 0.0536 m2 (small)
Launch date: June 29, 1961
Source: United States (US)
Launch site: AIR FORCE EASTERN TEST RANGE (AFETR)

Note: This is SATELLITE DEBRIS
aabbcc
Your satellite tracking list
Your tracking list is empty




NASA's NSSDC Master Catalog

Two Line Element Set (TLE):
1   406U 61015EF  20195.04728501 -.00000062  00000-0  11798-4 0  9996
2   406  66.7796  44.8356 0115681  39.6216 114.1882 13.66897541925496
Source of the keplerian elements: AFSPC